User: anonymous   Login
Location: Unspecified
(0.0000°N, 0.0000°E)
Time: 15:33:14
(UTC+00:00)
Language:

APRIZESAT 9 - Orbit

View from above orbital plane
View from above orbital plane
View from above satellite
View from above satellite

Ground track
Ground track

The orbit data is extracted from the following two-line orbital elements,

1 40018U 14033J   18116.10064612  .00000056  00000-0  16990-4 0  9991
2 40018  97.7997 345.4971 0072280  30.2027 330.3317 14.69867813206459
Epoch (UTC): 26 April 2018 02:24:55
Eccentricity: 0.0072280
inclination: 97.7997°
perigee height: 610 km
apogee height: 712 km
right ascension of ascending node: 345.4971°
argument of perigee: 30.2027°
revolutions per day: 14.69867813
mean anomaly at epoch: 330.3317°
orbit number at epoch: 20645

The dashed part of the orbit path shows where the satellite is in the earth's shadow,  

DLR